Regional Weather Roundup
Issued by NWS

Home | Current Version | Previous Version | Text Only | Print | Product List | Glossary Off
Versions: 1 2 3 4 5 6 7 8 9 10 11 12 13 14 15 16 17 18 19 20 21 22 23 24 25 26 27 28

000
ASUS45 KTFX 260510
RWRMT
MONTANA REGIONAL WEATHER ROUNDUP
NATIONAL WEATHER SERVICE GREAT FALLS MT
1100 PM MDT THU AUG 25 2016

NOTE: "FAIR" INDICATES FEW OR NO CLOUDS BELOW 12000 FEET WITH NO
SIGNIFICANT WEATHER AND/OR OBSTRUCTIONS TO VISIBILITY.

MTZ001>007-043-260600-
WEST OF THE DIVIDE

CITY           SKY/WX    TMP DP  RH WIND       PRES   REMARKS
KALISPELL      MOCLDY    62  44  51 NE23G31   30.13S
MISSOULA         N/A     62  32  32 CALM      30.12R
BUTTE            N/A     56  31  38 N6        30.21R
MULLAN PASS      N/A     54  29  38 SE6       30.22S
DEER LODGE       N/A     54  32  43 CALM      30.21R
EUREKA           N/A     61  46  59 CALM        N/A
HAMILTON         N/A     55  36  47 CALM      30.11R
LIBBY            N/A     66  37  34 E9        30.11R
PLAINS           N/A     57  39  51 CALM      30.09S
RONAN            N/A     58  43  57 N1        30.14S
THOMPSON FALLS   N/A     60  38  44 CALM      30.12R
$$

MTZ008-052>055-260600-
SOUTHWEST MONTANA

CITY           SKY/WX    TMP DP  RH WIND       PRES   REMARKS
BOZEMAN          N/A     54  38  54 W9        30.18R
DILLON           N/A     54  30  40 E6        30.17R
W YELLOWSTONE    N/A     52  27  37 N7        30.23R
ENNIS          CLEAR     50  32  50 N12       30.22S
THREE FORKS      N/A     50  17  27 CALM      30.15R
TWIN BRIDGES     N/A     59  28  30 N8        30.14R
$$

MTZ009-010-012-014-046-048-049-054-260600-
EAST SLOPES AND CENTRAL MONTANA

CITY           SKY/WX    TMP DP  RH WIND       PRES   REMARKS
CUT BANK         N/A     50  45  83 NW8       30.21S
GREAT FALLS      N/A     54  38  54 N9        30.19R
MALMSTROM AFB  CLEAR     56  42  59 N5        30.18R
HELENA           N/A     58  37  45 W6        30.16S
CHOTEAU          N/A     54  45  71 N5        30.23R
CONRAD           N/A     52  46  79 CALM      30.21S
$$

MTZ011-013-016-021-045-047-050-051-260600-
NORTH CENTRAL MONTANA

CITY           SKY/WX    TMP DP  RH WIND       PRES   REMARKS
HAVRE          CLOUDY    60  47  61 N5        30.13S
LEWISTOWN      CLOUDY    53  41  63 S5        30.18S
N BAR RANCH    MOCLDY    54  41  62 W6        30.21S
CHINOOK          N/A     57  50  77 CALM      30.12S
$$

MTZ017>020-022>027-061-062-260600-
NORTHEAST MONTANA

CITY           SKY/WX    TMP DP  RH WIND       PRES   REMARKS
GLASGOW          N/A     57  43  59 S8        30.10S
JORDAN           N/A     55  38  52 SE3       30.12S
SIDNEY           N/A     51  43  74 S7        30.11R
WOLF POINT     CLOUDY    60  48  64 VRB3      30.10S
POPLAR           N/A     63  45  51 CALM      30.10S
SCOBEY           N/A     60  43  53 CALM      30.08F
$$

MTZ028>42-056>058-260600-
SOUTHCENTRAL AND SOUTHEAST MONTANA

CITY           SKY/WX    TMP DP  RH WIND       PRES   REMARKS
BAKER            N/A     49  38  65 E5        30.17F
BILLINGS         N/A     60  38  43 E6        30.15S
LIVINGSTON       N/A     55  35  47 SE12      30.17R
MILES CITY       N/A     59  35  40 S3        30.14S
EKALAKA          N/A     49  37  63 SE3       30.15S
FORSYTH          N/A     55  39  54 SE6       30.14S
LAUREL           N/A     56  38  50 CALM      30.12F
ROUNDUP          N/A     57  37  47 W2        30.06S
$$

REGIONAL REPORTS...DAKOTAS

CITY           SKY/WX    TMP DP  RH WIND       PRES   REMARKS
WILLISTON      CLOUDY    60  39  45 SW6       30.09S
MINOT          MOCLDY    59  42  53 S7        30.07R
DICKINSON        N/A     52  40  63 SW3       30.13S
BISMARCK         N/A     56  46  69 SW3       30.13S
GRAND FORKS      N/A     51  48  89 CALM      30.05R
FARGO            N/A     56  50  80 SW7       30.09R
BUFFALO SD       N/A     55  39  54 W3        30.13R
RAPID CITY       N/A     51  45  79 CALM      30.20R
$$

REGIONAL REPORTS...WYOMING/IDAHO/WASHINGTON

CITY           SKY/WX    TMP DP  RH WIND       PRES   REMARKS
GILLETTE         N/A     52  43  71 S9        30.19S
SHERIDAN         N/A     53  46  77 W5        30.16F
BUFFALO WY     MOCLDY    57  41  55 CALM      30.21S
CODY           MOCLDY    54  43  66 CALM      30.19S
YELLOWSTONE LA   N/A     45  34  65 CALM      30.29R
IDAHO FALLS      N/A     54  37  52 N10       30.08R
SALMON           N/A     61  34  36 E3        30.06R
BOISE            N/A     67  37  33 CALM      29.97F
SPOKANE        MOCLDY    72  35  25 CALM      30.04R
$$

REGIONAL REPORTS...ALBERTA

CITY           SKY/WX    TMP DP  RH WIND       PRES   REMARKS
EDMONTON       PTCLDY    54  50  87 W7        30.13S
CALGARY        LGT RAIN  54  46  76 NW13G18   30.20F
LETHBRIDGE     MOCLDY    50  46  87 W15       30.19F
MEDICINE HAT   LGT RAIN  54  52  94 W8        30.12F
WATERTON GATE    N/A     48  46  93 S6          N/A
MILK RIVER       N/A     46  45  93 NW5         N/A
ONEFOUR          N/A     52  48  87 NW13        N/A
$$

REGIONAL REPORTS...SASKATCHEWAN

CITY           SKY/WX    TMP DP  RH WIND       PRES   REMARKS
SWIFT CURRENT  CLOUDY    55  52  88 W9        30.07S
REGINA         CLOUDY    57  52  82 W8        30.04F
SASKATOON      MOCLDY    54  54 100 CALM      30.00S
CYPRESS HILLS    N/A     46  43  87 NW6         N/A
ROCKGLEN         N/A     52  46  82 SW2         N/A
ASSINIBOIA       N/A     54  50  87 W7          N/A
$$




USA.gov is the U.S. government's official web portal to all federal, state and local government web resources and services.